This is the latest recevied weather packets stored in our database for station/object KD8OZS. If no packets are shown the sender has not sent any weather packets the latest 10 day(s).
| Time | Temp. | Humidity | Pressure | Rain* | Wind** | Luminosity | Snow |
|---|---|---|---|---|---|---|---|
| 1778070616 | 6.67° C | 96% | 1001.9 hPa | 0 mm | - | 77 W/m² | - |
| 1778070011 | 6.67° C | 97% | 1002 hPa | 0 mm | - | 40 W/m² | - |
| 1778069708 | 6.67° C | 97% | 1001.7 hPa | 0 mm | - | 65 W/m² | - |
| 1778069102 | 7.22° C | 97% | 1001.6 hPa | 0 mm | - | 97 W/m² | - |
| 1778067591 | 6.67° C | 98% | 1001.7 hPa | 0 mm | - | 18 W/m² | - |
| 1778065168 | 6.67° C | 98% | 1000.9 hPa | 0 mm | - | 5 W/m² | - |
| 1778063958 | 6.67° C | 98% | 1001.5 hPa | 0 mm | - | 0 W/m² | - |
| 1778063655 | 6.67° C | 98% | 1001 hPa | 0 mm | - | 0 W/m² | - |
| 1778063352 | 6.67° C | 98% | 1000.3 hPa | 0 mm | - | 0 W/m² | - |
| 1778062747 | 6.67° C | 98% | 1000.3 hPa | 0 mm | - | 0 W/m² | - |
| 1778062443 | 6.67° C | 98% | 1000 hPa | 0 mm | - | 0 W/m² | - |
| 1778062140 | 6.67° C | 98% | 999.6 hPa | 0 mm | - | 0 W/m² | - |
| 1778061839 | 6.67° C | 98% | 999.5 hPa | 0 mm | - | 0 W/m² | - |
| 1778061536 | 6.67° C | 98% | 1000 hPa | 0 mm | - | 0 W/m² | - |
| 1778061235 | 6.67° C | 98% | 999.9 hPa | 0 mm | - | 0 W/m² | - |
| 1778060327 | 6.67° C | 98% | 999.6 hPa | 1.78 mm | - | 0 W/m² | - |
| 1778059722 | 6.67° C | 98% | 1000.2 hPa | 0 mm | - | 0 W/m² | - |
| 1778059420 | 6.67° C | 98% | 1000.5 hPa | 0 mm | - | 0 W/m² | - |
| 1778056691 | 6.67° C | 97% | 1000.6 hPa | 1.78 mm | - | 0 W/m² | - |
| 1778056389 | 6.67° C | 97% | 1000.4 hPa | 0 mm | - | 0 W/m² | - |
| 1778056086 | 6.67° C | 97% | 1000.6 hPa | 0 mm | - | 0 W/m² | - |
| 1778055782 | 6.67° C | 97% | 1000.6 hPa | 0 mm | - | 0 W/m² | - |
| 1778055479 | 6.67° C | 97% | 1000.6 hPa | 1.78 mm | - | 0 W/m² | - |
| 1778055177 | 6.67° C | 97% | 1000.2 hPa | 1.78 mm | - | 0 W/m² | - |
| 1778054875 | 6.67° C | 97% | 1000.3 hPa | 1.27 mm | - | 0 W/m² | - |
* Rain latest hour (hover to see other rain measurements)
** Current wind speed in m/s (hover to see current wind gust speed)